EJU38VB LEMD-LFMN

Flight info

Callsign EJU38VB
Flight time 1h 27m
Altitude 36000
Route PINAR DCT SEGRE DCT BRITO DCT PISUS DCT PONEN DCT SEROX DCT VILAR DCT KARES DCT BISES DCT BCN DCT FEVIK DCT DALIN DCT PIVUS DCT DIBER DCT SOSUR DCT SOFFY DCT MRM DCT ABLAK
Aircraft A320/M-SDE2E3FGHIJ1RWXYZ/LB1

Departure

Time 2026-05-04 15:53
Airport Adolfo Suárez Madrid–Barajas Airport (LEMD)

Arrival

Time 2026-05-04 17:20
Airport Nice-Côte d'Azur Airport (LFMN)
Time Latitude Longitude Altitude Speed Heading
2026-05-04 15:13 40.46773 -3.56781 1976 ft 0 kts 327°
2026-05-04 15:39 40.46768 -3.56777 1979 ft 4 kts 327°
2026-05-04 15:39 40.46727 -3.56742 1979 ft 3 kts 327°
2026-05-04 15:40 40.46707 -3.56720 1979 ft 4 kts 314°
2026-05-04 15:40 40.46688 -3.56703 1978 ft 3 kts
2026-05-04 15:40 40.46668 -3.56704 1975 ft 1 kts
2026-05-04 15:42 40.46689 -3.56702 1978 ft 6 kts
2026-05-04 15:42 40.46750 -3.56698 1975 ft 11 kts
2026-05-04 15:43 40.46835 -3.56682 1976 ft 12 kts 12°
2026-05-04 15:43 40.46882 -3.56619 1975 ft 11 kts 79°
2026-05-04 15:43 40.46939 -3.56550 1976 ft 14 kts
2026-05-04 15:43 40.47044 -3.56567 1978 ft 17 kts 345°
2026-05-04 15:44 40.47156 -3.56638 1982 ft 19 kts 325°
2026-05-04 15:44 40.47261 -3.56742 1985 ft 18 kts 322°
2026-05-04 15:44 40.47362 -3.56845 1988 ft 18 kts 322°
2026-05-04 15:44 40.47461 -3.56944 1990 ft 18 kts 322°
2026-05-04 15:45 40.47557 -3.57042 1993 ft 18 kts 322°
2026-05-04 15:45 40.47652 -3.57138 1997 ft 17 kts 322°
2026-05-04 15:45 40.47748 -3.57235 2000 ft 19 kts 322°
2026-05-04 15:45 40.47852 -3.57341 2004 ft 19 kts 322°
2026-05-04 15:46 40.47962 -3.57453 2003 ft 22 kts 322°
2026-05-04 15:46 40.48092 -3.57589 1999 ft 26 kts 322°
2026-05-04 15:46 40.48239 -3.57735 1995 ft 26 kts 322°
2026-05-04 15:46 40.48389 -3.57880 1991 ft 27 kts 326°
2026-05-04 15:47 40.48540 -3.58007 2001 ft 24 kts 329°
2026-05-04 15:47 40.48680 -3.58048 2003 ft 20 kts 359°
2026-05-04 15:47 40.48806 -3.58049 2003 ft 14 kts
2026-05-04 15:47 40.48856 -3.57955 2000 ft 14 kts 86°
2026-05-04 15:48 40.48858 -3.57799 1994 ft 22 kts 90°
2026-05-04 15:48 40.48858 -3.57568 1989 ft 27 kts 89°
2026-05-04 15:48 40.48860 -3.57053 1980 ft 30 kts 90°
2026-05-04 15:49 40.48860 -3.56788 1975 ft 29 kts 90°
2026-05-04 15:49 40.48862 -3.56539 1970 ft 28 kts 89°
2026-05-04 15:49 40.48864 -3.56317 1964 ft 17 kts 87°
2026-05-04 15:49 40.48951 -3.56245 1962 ft 16 kts
2026-05-04 15:50 40.49066 -3.56245 1962 ft 19 kts 359°
2026-05-04 15:50 40.49206 -3.56246 1962 ft 20 kts
2026-05-04 15:50 40.49336 -3.56246 1962 ft 17 kts 358°
2026-05-04 15:50 40.49409 -3.56156 1959 ft 16 kts 85°
2026-05-04 15:51 40.49409 -3.56017 1960 ft 14 kts 90°
2026-05-04 15:51 40.49409 -3.55905 1961 ft 11 kts 90°
2026-05-04 15:51 40.49410 -3.55807 1963 ft 10 kts 90°
2026-05-04 15:51 40.49404 -3.55719 1962 ft 11 kts 112°
2026-05-04 15:52 40.49303 -3.55603 1961 ft 44 kts 142°
2026-05-04 15:52 40.48861 -3.55155 1955 ft 113 kts 142°
2026-05-04 15:52 40.48087 -3.54371 1933 ft 165 kts 142°
2026-05-04 15:52 40.47153 -3.53378 2420 ft 172 kts 144°
2026-05-04 15:53 40.46211 -3.52408 3100 ft 173 kts 146°
2026-05-04 15:53 40.45215 -3.51414 3538 ft 190 kts 146°
2026-05-04 15:53 40.44489 -3.50693 3729 ft 205 kts 145°
2026-05-04 15:53 40.43319 -3.49455 3983 ft 229 kts 133°
2026-05-04 15:54 40.42480 -3.47592 4477 ft 244 kts 116°
2026-05-04 15:54 40.41736 -3.45552 5162 ft 252 kts 117°
2026-05-04 15:54 40.40969 -3.43454 5885 ft 256 kts 118°
2026-05-04 15:54 40.40192 -3.41340 6694 ft 258 kts 118°
2026-05-04 15:55 40.39426 -3.39206 7456 ft 261 kts 113°
2026-05-04 15:55 40.39132 -3.36849 8201 ft 266 kts 85°
2026-05-04 15:55 40.39678 -3.34533 8946 ft 269 kts 57°
2026-05-04 15:55 40.40993 -3.32714 9367 ft 284 kts 27°
2026-05-04 15:56 40.42864 -3.31909 9991 ft 286 kts
2026-05-04 15:56 40.44847 -3.31590 10694 ft 288 kts
2026-05-04 15:56 40.46846 -3.31263 11437 ft 291 kts
2026-05-04 15:56 40.48859 -3.30926 12149 ft 294 kts
2026-05-04 15:57 40.50898 -3.30578 12854 ft 297 kts
2026-05-04 15:57 40.52957 -3.30225 13570 ft 300 kts
2026-05-04 15:57 40.55032 -3.29871 14220 ft 303 kts
2026-05-04 15:57 40.57131 -3.29513 14843 ft 305 kts
2026-05-04 15:58 40.59250 -3.29149 15464 ft 308 kts
2026-05-04 15:58 40.61389 -3.28782 16084 ft 311 kts
2026-05-04 15:58 40.63563 -3.28413 16483 ft 324 kts
2026-05-04 15:58 40.65870 -3.28029 16604 ft 344 kts
2026-05-04 15:59 40.68292 -3.27625 16924 ft 356 kts
2026-05-04 15:59 40.70766 -3.27202 17470 ft 361 kts
2026-05-04 15:59 40.73268 -3.26770 18073 ft 364 kts
2026-05-04 15:59 40.75786 -3.26334 18616 ft 367 kts
2026-05-04 16:00 40.78330 -3.25892 19126 ft 370 kts
2026-05-04 16:00 40.80850 -3.25049 19634 ft 380 kts 18°
2026-05-04 16:00 40.83195 -3.23350 20153 ft 390 kts 33°
2026-05-04 16:00 40.85175 -3.20862 20665 ft 398 kts 49°
2026-05-04 16:01 40.86612 -3.17772 21184 ft 404 kts 65°
2026-05-04 16:01 40.87474 -3.14228 21707 ft 407 kts 75°
2026-05-04 16:01 40.88188 -3.10592 22217 ft 410 kts 75°
2026-05-04 16:01 40.88902 -3.06936 22725 ft 413 kts 75°
2026-05-04 16:02 40.89622 -3.03246 23251 ft 415 kts 75°
2026-05-04 16:02 40.90345 -2.99549 23770 ft 417 kts 75°
2026-05-04 16:02 40.91809 -2.92065 24583 ft 424 kts 75°
2026-05-04 16:03 40.92551 -2.88274 24977 ft 427 kts 75°
2026-05-04 16:03 40.93296 -2.84450 25349 ft 431 kts 75°
2026-05-04 16:03 40.94045 -2.80591 25716 ft 435 kts 75°
2026-05-04 16:03 40.94799 -2.76699 26074 ft 438 kts 75°
2026-05-04 16:04 40.95558 -2.72783 26430 ft 442 kts 75°
2026-05-04 16:04 40.97095 -2.64843 27114 ft 449 kts 76°
2026-05-04 16:04 40.97866 -2.60832 27447 ft 452 kts 76°
2026-05-04 16:05 40.98642 -2.56781 27781 ft 455 kts 76°
2026-05-04 16:05 40.99423 -2.52701 28110 ft 459 kts 76°
2026-05-04 16:05 41.00992 -2.44453 28749 ft 465 kts 76°
2026-05-04 16:06 41.01779 -2.40297 29062 ft 468 kts 76°
2026-05-04 16:06 41.03909 -2.29083 29868 ft 476 kts 76°
2026-05-04 16:07 41.04991 -2.23376 30206 ft 479 kts 77°
2026-05-04 16:07 41.07408 -2.10482 30945 ft 486 kts 77°
2026-05-04 16:08 41.08226 -2.06121 31173 ft 488 kts 77°
2026-05-04 16:08 41.10685 -1.92962 32059 ft 490 kts 77°
2026-05-04 16:09 41.12309 -1.84172 32685 ft 491 kts 78°
2026-05-04 16:09 41.13918 -1.75391 33353 ft 490 kts 78°
2026-05-04 16:10 41.15529 -1.66601 33974 ft 490 kts 78°
2026-05-04 16:11 41.17939 -1.53396 34713 ft 490 kts 78°
2026-05-04 16:11 41.18735 -1.49003 34943 ft 489 kts 78°
2026-05-04 16:12 41.21105 -1.35871 35681 ft 487 kts 78°
2026-05-04 16:12 41.23451 -1.22770 35968 ft 491 kts 78°
2026-05-04 16:13 41.26598 -1.05093 35957 ft 492 kts 79°
2026-05-04 16:14 41.29721 -0.87393 35951 ft 492 kts 79°
2026-05-04 16:16 41.33579 -0.65270 35924 ft 491 kts 80°
2026-05-04 16:16 41.35370 -0.51907 35958 ft 484 kts 94°
2026-05-04 16:17 41.35309 -0.42986 35952 ft 482 kts 95°
2026-05-04 16:18 41.35178 -0.25172 35934 ft 481 kts 95°
2026-05-04 16:19 41.34965 -0.02937 35929 ft 480 kts 95°
2026-05-04 16:20 41.34706 0.19321 35894 ft 483 kts 96°
2026-05-04 16:22 41.34397 0.41733 35873 ft 485 kts 96°
2026-05-04 16:23 41.33976 0.68595 35890 ft 485 kts 96°
2026-05-04 16:25 41.33509 0.95487 35927 ft 484 kts 96°
2026-05-04 16:26 41.32857 1.26784 35916 ft 483 kts 97°
2026-05-04 16:28 41.32359 1.49111 35919 ft 483 kts 97°
2026-05-04 16:29 41.31568 1.80280 35917 ft 483 kts 97°
2026-05-04 16:31 41.30953 2.02587 35929 ft 482 kts 98°
2026-05-04 16:31 41.32527 2.15902 35930 ft 497 kts 70°
2026-05-04 16:32 41.36875 2.28454 35946 ft 498 kts 67°
2026-05-04 16:33 41.42670 2.45207 35917 ft 500 kts 68°
2026-05-04 16:34 41.47009 2.57856 35919 ft 500 kts 68°
2026-05-04 16:35 41.55668 2.83198 35928 ft 501 kts 68°
2026-05-04 16:36 41.59987 2.95914 35919 ft 501 kts 68°
2026-05-04 16:37 41.64271 3.08587 35892 ft 501 kts 68°
2026-05-04 16:38 41.69982 3.25615 35907 ft 502 kts 68°
2026-05-04 16:39 41.77097 3.46946 35923 ft 502 kts 68°
2026-05-04 16:40 41.82298 3.62607 35923 ft 502 kts 68°
2026-05-04 16:41 41.89358 3.84053 35909 ft 502 kts 68°
2026-05-04 16:43 41.96320 4.05419 35934 ft 499 kts 68°
2026-05-04 16:43 42.00490 4.18236 35938 ft 498 kts 69°
2026-05-04 16:45 42.09701 4.43178 35919 ft 499 kts 48°
2026-05-04 16:46 42.22475 4.58913 35652 ft 498 kts 40°
2026-05-04 16:47 42.27622 4.65152 35181 ft 496 kts 40°
2026-05-04 16:47 42.32746 4.71362 34692 ft 492 kts 40°
2026-05-04 16:48 42.40314 4.80545 33980 ft 487 kts 40°
2026-05-04 16:48 42.42830 4.83607 33719 ft 485 kts 40°
2026-05-04 16:49 42.47829 4.89707 33188 ft 480 kts 41°
2026-05-04 16:49 42.52756 4.95729 32645 ft 474 kts 40°
2026-05-04 16:50 42.58217 5.00462 32121 ft 461 kts 18°
2026-05-04 16:50 42.64270 5.02982 31622 ft 453 kts 12°
2026-05-04 16:51 42.70290 5.05366 31113 ft 448 kts 13°
2026-05-04 16:51 42.73274 5.06562 30869 ft 446 kts 13°
2026-05-04 16:51 42.79197 5.08934 30377 ft 441 kts 13°
2026-05-04 16:52 42.85061 5.11270 29886 ft 436 kts 13°
2026-05-04 16:52 42.87961 5.12420 29604 ft 434 kts 13°
2026-05-04 16:53 42.93740 5.14722 29062 ft 431 kts 13°
2026-05-04 16:53 43.02276 5.18142 28256 ft 425 kts 13°
2026-05-04 16:54 43.05107 5.19286 27988 ft 423 kts 13°
2026-05-04 16:55 43.16295 5.23856 26969 ft 417 kts 13°
2026-05-04 16:55 43.21826 5.26115 26469 ft 413 kts 13°
2026-05-04 16:56 43.27313 5.28357 25979 ft 409 kts 13°
2026-05-04 16:56 43.35405 5.31694 24906 ft 401 kts 14°
2026-05-04 16:57 43.38009 5.33082 24447 ft 403 kts 25°
2026-05-04 16:57 43.42754 5.37165 23488 ft 402 kts 31°
2026-05-04 16:58 43.49393 5.44034 22040 ft 396 kts 50°
2026-05-04 16:58 43.50944 5.47134 21683 ft 389 kts 63°
2026-05-04 16:59 43.52958 5.53902 21042 ft 377 kts 71°
2026-05-04 17:00 43.56587 5.67112 19808 ft 362 kts 79°
2026-05-04 17:00 43.57452 5.77299 18914 ft 353 kts 88°
2026-05-04 17:01 43.57890 5.84011 18332 ft 349 kts 88°
2026-05-04 17:01 43.58322 5.90647 17718 ft 346 kts 88°
2026-05-04 17:02 43.58755 5.97224 17144 ft 343 kts 88°
2026-05-04 17:02 43.59179 6.03756 16574 ft 340 kts 88°
2026-05-04 17:03 43.59384 6.07001 16293 ft 338 kts 89°
2026-05-04 17:03 43.59305 6.10209 16010 ft 332 kts 103°
2026-05-04 17:03 43.57919 6.16120 15322 ft 325 kts 115°
2026-05-04 17:04 43.56319 6.21918 14634 ft 322 kts 114°
2026-05-04 17:04 43.54743 6.27688 13949 ft 320 kts 114°
2026-05-04 17:05 43.53169 6.33409 13239 ft 317 kts 114°
2026-05-04 17:05 43.51605 6.39037 12568 ft 312 kts 115°
2026-05-04 17:06 43.49746 6.44300 11921 ft 299 kts 133°
2026-05-04 17:06 43.48346 6.46386 11656 ft 294 kts 137°
2026-05-04 17:07 43.45546 6.50413 11118 ft 289 kts 136°
2026-05-04 17:07 43.44627 6.51737 10936 ft 288 kts 137°
2026-05-04 17:07 43.42786 6.54387 10580 ft 285 kts 136°
2026-05-04 17:07 43.41417 6.56361 10307 ft 285 kts 135°
2026-05-04 17:08 43.40354 6.58667 10067 ft 288 kts 114°
2026-05-04 17:08 43.40564 6.64119 9778 ft 300 kts 65°
2026-05-04 17:08 43.41538 6.66655 9647 ft 301 kts 64°
2026-05-04 17:09 43.42531 6.69190 9518 ft 300 kts 64°
2026-05-04 17:09 43.43522 6.71714 9392 ft 299 kts 64°
2026-05-04 17:09 43.44503 6.74214 9213 ft 295 kts 65°
2026-05-04 17:10 43.46130 6.79265 8505 ft 287 kts 83°
2026-05-04 17:10 43.46067 6.83718 7939 ft 273 kts 105°
2026-05-04 17:11 43.45148 6.89644 7284 ft 270 kts 105°
2026-05-04 17:11 43.44760 6.92157 7031 ft 267 kts 104°
2026-05-04 17:11 43.44004 6.97053 5919 ft 259 kts 103°
2026-05-04 17:12 43.43626 6.99483 5262 ft 257 kts 102°
2026-05-04 17:12 43.42904 7.04150 4454 ft 245 kts 101°
2026-05-04 17:13 43.42297 7.10515 4214 ft 209 kts 76°
2026-05-04 17:14 43.44911 7.14752 3970 ft 183 kts 44°
2026-05-04 17:14 43.45897 7.15762 3865 ft 173 kts 31°
2026-05-04 17:14 43.48068 7.16157 3515 ft 151 kts
2026-05-04 17:15 43.49101 7.16055 3330 ft 148 kts
2026-05-04 17:15 43.51123 7.15867 2942 ft 145 kts
2026-05-04 17:16 43.53157 7.15676 2591 ft 144 kts
2026-05-04 17:16 43.56136 7.15368 2062 ft 144 kts
2026-05-04 17:17 43.57125 7.15250 1877 ft 141 kts
2026-05-04 17:17 43.60080 7.14881 1323 ft 143 kts
2026-05-04 17:18 43.61028 7.15017 1042 ft 133 kts 31°
2026-05-04 17:18 43.62408 7.16479 779 ft 127 kts 53°
2026-05-04 17:19 43.63649 7.18235 533 ft 129 kts 51°
2026-05-04 17:19 43.64899 7.19999 167 ft 125 kts 53°
2026-05-04 17:20 43.65988 7.21521 20 ft 76 kts 44°
2026-05-04 17:20 43.66409 7.22005 23 ft 22 kts 21°
2026-05-04 17:20 43.66506 7.22048 21 ft 12 kts
2026-05-04 17:21 43.66511 7.21915 21 ft 10 kts 225°
2026-05-04 17:21 43.66415 7.21779 21 ft 10 kts 226°
2026-05-04 17:22 43.66348 7.21686 21 ft 17 kts 225°
2026-05-04 17:22 43.66267 7.21575 21 ft 16 kts 224°
2026-05-04 17:23 43.66007 7.21219 21 ft 22 kts 225°
2026-05-04 17:23 43.65903 7.21076 21 ft 20 kts 225°
2026-05-04 17:23 43.65819 7.20868 23 ft 8 kts 323°
2026-05-04 17:24 43.65859 7.20833 21 ft 6 kts 307°
2026-05-04 17:24 43.65872 7.20694 21 ft 3 kts 314°
2026-05-04 17:25 43.65886 7.20674 21 ft 2 kts 314°
2026-05-04 17:25 43.65887 7.20672 21 ft 0 kts 314°